^^
Marion, Virginia Banner
 

U.S. Satellite Loop
U.S. National Satellite Loop
View Satellite

Live Doppler Radar
Blacksburg, VA Nexrad Doppler Radar
View Radar

NW Atlantic Satellite
U.S. National Satellite Loop
View Satellite

US WX Conditions
US Weather Conditions
View Wx Conditions


USA Weather Finder


 

Adwolf, VA. Station Historical Data
[ Providing Data Since 6/07/2007 ]
Station Historical Data
Daily Summary for March 20, 2017 Units:  Metric    English   Both
« Previous Day
Next Day »
Daily Weekly Monthly Yearly Custom
  High: Low: Average:
Temperature: -17.8 °C -4 °C 6.2 °C
Dew Point: -17.8 °C -5 °C -0.2 °C
Humidity: Humidity% 36% 68%
Wind Speed: 0km/h 0km/h 5.6km/h
Wind Gust: 0km/h - -
Wind- - SW
Pressure: 0 hPa 1019.2 hPa -
Precipitation: 0.25 mm    
Historical Graphs
 
 
Tabular Data for March 20, 2017
Time Temperature Dew Point Pressure Wind Wind Speed Wind Gust Humidity Rainfall Rate (Hourly) solar Conditions
-17.8 °C -17.8 °C 0 hPa Calm     Humidity% 0 mm SoftwareType W/m2 Conditions
00:02 -1.6 °C -3.2 °C 1027.7 hPa Calm     89% 0 mm WeatherDisplay:10.37 W/m2 RA
00:07 -1.6 °C -3.2 °C 1027.7 hPa Calm     89% 0 mm WeatherDisplay:10.37 W/m2 RA
00:17 -1.8 °C -3.2 °C 1027.7 hPa Calm     90% 0 mm WeatherDisplay:10.37 W/m2 CLR
00:22 -1.8 °C -3.2 °C 1027.7 hPa Calm     90% 0 mm WeatherDisplay:10.37 W/m2 CLR
00:27 -1.8 °C -3.3 °C 1027.7 hPa WNW 1.9 km/h   90% 0 mm WeatherDisplay:10.37 W/m2 CLR
00:32 -1.8 °C -3.3 °C 1027.7 hPa Calm     90% 0 mm WeatherDisplay:10.37 W/m2 CLR
00:37 -1.9 °C -3.4 °C 1027.3 hPa WNW 1.9 km/h 1.9 km/h 90% 0 mm WeatherDisplay:10.37 W/m2 CLR
00:42 -1.9 °C -3.4 °C 1027.3 hPa WNW 3.7 km/h 3.7 km/h 90% 0 mm WeatherDisplay:10.37 W/m2 CLR
00:47 -1.9 °C -3.4 °C 1027.3 hPa WNW 3.7 km/h 3.7 km/h 90% 0 mm WeatherDisplay:10.37 W/m2 CLR
00:52 -1.9 °C -3.2 °C 1027.3 hPa WNW 3.7 km/h 3.7 km/h 91% 0 mm WeatherDisplay:10.37 W/m2 CLR
00:57 -1.8 °C -3.1 °C 1027 hPa WNW 1.9 km/h   91% 0 mm WeatherDisplay:10.37 W/m2 CLR
01:02 -1.8 °C -3.1 °C 1027 hPa Calm     91% 0 mm WeatherDisplay:10.37 W/m2 CLR
01:07 -1.9 °C -3.2 °C 1027 hPa WNW 1.6 km/h 1.6 km/h 91% 0 mm WeatherDisplay:10.37 W/m2 CLR
01:12 -1.9 °C -3.2 °C 1026.6 hPa WNW 3.2 km/h 3.2 km/h 91% 0 mm WeatherDisplay:10.37 W/m2 CLR
01:17 -1.9 °C -3.2 °C 1026.6 hPa Calm     91% 0 mm WeatherDisplay:10.37 W/m2 CLR
01:22 -2 °C -3.3 °C 1026.6 hPa WNW 1.9 km/h 1.9 km/h 91% 0 mm WeatherDisplay:10.37 W/m2 CLR
01:27 -2.1 °C -3.3 °C 1026.6 hPa Calm     91% 0 mm WeatherDisplay:10.37 W/m2 CLR
01:32 -2.1 °C -3.4 °C 1026.6 hPa Calm     91% 0 mm WeatherDisplay:10.37 W/m2 CLR
01:37 -2.1 °C -3.4 °C 1026.6 hPa Calm     91% 0 mm WeatherDisplay:10.37 W/m2 CLR
01:42 -2.2 °C -3.4 °C 1026.6 hPa Calm     91% 0 mm WeatherDisplay:10.37 W/m2 CLR
01:47 -2.3 °C -3.4 °C 1026.6 hPa Calm     92% 0 mm WeatherDisplay:10.37 W/m2 CLR
01:52 -2.3 °C -3.4 °C 1026.6 hPa WNW 1.9 km/h 1.9 km/h 92% 0 mm WeatherDisplay:10.37 W/m2 CLR
01:57 -2.3 °C -3.5 °C 1026.6 hPa WNW 1.9 km/h 1.9 km/h 92% 0 mm WeatherDisplay:10.37 W/m2 CLR
02:02 -2.4 °C -3.6 °C 1026.6 hPa Calm     92% 0 mm WeatherDisplay:10.37 W/m2 CLR
02:07 -2.4 °C -3.6 °C 1026.6 hPa WNW 1.9 km/h 1.9 km/h 92% 0 mm WeatherDisplay:10.37 W/m2 CLR
02:12 -2.4 °C -3.6 °C 1026.6 hPa WNW 3.7 km/h 3.7 km/h 92% 0 mm WeatherDisplay:10.37 W/m2 CLR
02:17 -2.4 °C -3.4 °C 1026.6 hPa Calm     93% 0 mm WeatherDisplay:10.37 W/m2 CLR
02:22 -2.4 °C -3.6 °C 1026.6 hPa Calm     92% 0 mm WeatherDisplay:10.37 W/m2 CLR
02:27 -2.5 °C -3.7 °C 1026.6 hPa Calm     92% 0 mm WeatherDisplay:10.37 W/m2 CLR
02:32 -2.6 °C -3.7 °C 1026.6 hPa Calm     92% 0 mm WeatherDisplay:10.37 W/m2 CLR
02:37 -2.6 °C -3.8 °C 1026.6 hPa WNW 1.6 km/h 1.6 km/h 92% 0 mm WeatherDisplay:10.37 W/m2 CLR
02:42 -2.6 °C -3.8 °C 1026.6 hPa Calm     92% 0 mm WeatherDisplay:10.37 W/m2 CLR
02:47 -2.7 °C -3.8 °C 1026.6 hPa WNW 1.9 km/h 1.9 km/h 92% 0 mm WeatherDisplay:10.37 W/m2 CLR
02:52 -2.7 °C -3.7 °C 1026.6 hPa Calm     93% 0 mm WeatherDisplay:10.37 W/m2 CLR
02:57 -2.7 °C -3.7 °C 1026.6 hPa WNW 1.9 km/h 1.9 km/h 93% 0 mm WeatherDisplay:10.37 W/m2 CLR
03:02 -2.7 °C -3.7 °C 1026.6 hPa Calm     93% 0 mm WeatherDisplay:10.37 W/m2 CLR
03:07 -2.8 °C -3.8 °C 1027 hPa Calm     93% 0 mm WeatherDisplay:10.37 W/m2 CLR
03:12 -2.8 °C -3.8 °C 1027 hPa Calm     93% 0 mm WeatherDisplay:10.37 W/m2 CLR
03:17 -2.9 °C -3.9 °C 1027 hPa WNW 1.9 km/h 1.9 km/h 93% 0 mm WeatherDisplay:10.37 W/m2 CLR
03:22 -3 °C -4.1 °C 1027 hPa WNW 1.9 km/h 1.9 km/h 92% 0 mm WeatherDisplay:10.37 W/m2 CLR
03:27 -3.1 °C -4.2 °C 1027 hPa Calm     92% 0 mm WeatherDisplay:10.37 W/m2 CLR
03:32 -3.1 °C -4.2 °C 1027 hPa Calm     92% 0 mm WeatherDisplay:10.37 W/m2 CLR
03:37 -3.2 °C -4.3 °C 1027 hPa Calm     92% 0 mm WeatherDisplay:10.37 W/m2 CLR
03:42 -3.3 °C -4.3 °C 1026.6 hPa Calm     93% 0 mm WeatherDisplay:10.37 W/m2 CLR
03:47 -3.3 °C -4.3 °C 1026.6 hPa Calm     93% 0 mm WeatherDisplay:10.37 W/m2 CLR
03:52 -3.3 °C -4.3 °C 1026.6 hPa Calm     93% 0 mm WeatherDisplay:10.37 W/m2 CLR
03:57 -3.3 °C -4.3 °C 1026.6 hPa Calm     93% 0 mm WeatherDisplay:10.37 W/m2 CLR
04:02 -3.3 °C -4.3 °C 1026.6 hPa Calm     93% 0 mm WeatherDisplay:10.37 W/m2 CLR
04:07 -3.4 °C -4.4 °C 1026.6 hPa Calm     93% 0 mm WeatherDisplay:10.37 W/m2 CLR
04:12 -3.3 °C -4.3 °C 1026.6 hPa Calm     93% 0 mm WeatherDisplay:10.37 W/m2 CLR
04:17 -3.3 °C -4.3 °C 1026.6 hPa Calm     93% 0 mm WeatherDisplay:10.37 W/m2 CLR
04:22 -3.4 °C -4.4 °C 1026.6 hPa Calm     93% 0 mm WeatherDisplay:10.37 W/m2 CLR
04:27 -3.4 °C -4.4 °C 1026.6 hPa Calm     93% 0 mm WeatherDisplay:10.37 W/m2 CLR
04:32 -3.5 °C -4.5 °C 1026.6 hPa Calm     93% 0 mm WeatherDisplay:10.37 W/m2 CLR
04:37 -3.5 °C -4.5 °C 1026.6 hPa Calm     93% 0 mm WeatherDisplay:10.37 W/m2 CLR
04:42 -3.6 °C -4.6 °C 1026.3 hPa Calm     93% 0 mm WeatherDisplay:10.37 W/m2 CLR
04:47 -3.6 °C -4.6 °C 1026.6 hPa Calm     93% 0 mm WeatherDisplay:10.37 W/m2 CLR
04:52 -3.7 °C -4.7 °C 1026.6 hPa Calm     93% 0 mm WeatherDisplay:10.37 W/m2 CLR
04:57 -3.7 °C -4.7 °C 1026.6 hPa Calm     93% 0 mm WeatherDisplay:10.37 W/m2 CLR
05:02 -3.7 °C -4.7 °C 1026.6 hPa Calm     93% 0 mm WeatherDisplay:10.37 W/m2 CLR
05:07 -3.8 °C -4.8 °C 1026.6 hPa Calm     93% 0 mm WeatherDisplay:10.37 W/m2 CLR
05:12 -3.8 °C -4.8 °C 1026.6 hPa Calm     93% 0 mm WeatherDisplay:10.37 W/m2 CLR
05:17 -3.7 °C -4.6 °C 1026.6 hPa Calm     94% 0 mm WeatherDisplay:10.37 W/m2 CLR
05:22 -3.7 °C -4.6 °C 1026.6 hPa Calm     94% 0 mm WeatherDisplay:10.37 W/m2 CLR
05:27 -3.7 °C -4.6 °C 1026.6 hPa Calm     94% 0 mm WeatherDisplay:10.37 W/m2 CLR
05:32 -3.7 °C -4.5 °C 1026.6 hPa Calm     94% 0 mm WeatherDisplay:10.37 W/m2 CLR
05:37 -3.7 °C -4.6 °C 1026.6 hPa Calm     94% 0 mm WeatherDisplay:10.37 W/m2 CLR
05:42 -3.7 °C -4.7 °C 1026.6 hPa Calm     93% 0 mm WeatherDisplay:10.37 W/m2 CLR
05:47 -3.7 °C -4.7 °C 1026.3 hPa Calm     93% 0 mm WeatherDisplay:10.37 W/m2 CLR
05:52 -3.8 °C -4.8 °C 1026.3 hPa Calm     93% 0 mm WeatherDisplay:10.37 W/m2 CLR
05:57 -3.8 °C -4.8 °C 1026.6 hPa Calm     93% 0 mm WeatherDisplay:10.37 W/m2 CLR
06:02 -3.8 °C -4.8 °C 1026.3 hPa Calm     93% 0 mm WeatherDisplay:10.37 W/m2 CLR
06:07 -3.8 °C -4.7 °C 1026.3 hPa Calm     94% 0 mm WeatherDisplay:10.37 W/m2 CLR
06:12 -3.9 °C -4.9 °C 1026.3 hPa Calm     93% 0 mm WeatherDisplay:10.37 W/m2 CLR
06:17 -3.9 °C -4.9 °C 1026.3 hPa Calm     93% 0 mm WeatherDisplay:10.37 W/m2 CLR
06:22 -3.9 °C -4.9 °C 1026.3 hPa Calm     93% 0 mm WeatherDisplay:10.37 W/m2 CLR
06:27 -3.9 °C -4.8 °C 1026 hPa WNW 1.9 km/h   94% 0 mm WeatherDisplay:10.37 W/m2 CLR
06:32 -3.9 °C -4.7 °C 1026 hPa Calm     94% 0 mm WeatherDisplay:10.37 W/m2 CLR
06:37 -3.9 °C -4.9 °C 1026 hPa Calm     93% 0 mm WeatherDisplay:10.37 W/m2 CLR
06:42 -3.9 °C -4.9 °C 1026.3 hPa Calm     93% 0 mm WeatherDisplay:10.37 W/m2 CLR
06:47 -3.9 °C -4.8 °C 1026.3 hPa Calm     94% 0 mm WeatherDisplay:10.37 W/m2 CLR
06:52 -3.9 °C -4.9 °C 1026.3 hPa Calm     93% 0 mm WeatherDisplay:10.37 W/m2 CLR
06:53 -3.9 °C -4.9 °C 1026.3 hPa Calm     93% 0 mm WeatherDisplay:10.37 W/m2 CLR
06:58 -4 °C -5 °C 1026 hPa Calm     93% 0 mm WeatherDisplay:10.37 W/m2 CLR
07:03 -4 °C -5 °C 1026 hPa East 3.7 km/h 3.7 km/h 93% 0 mm WeatherDisplay:10.37 W/m2 CLR
07:08 -3.9 °C -4.7 °C 1026 hPa East 3.7 km/h 3.7 km/h 94% 0 mm WeatherDisplay:10.37 W/m2 CLR
07:13 -3.8 °C -4.6 °C 1026 hPa East 3.7 km/h 3.7 km/h 94% 0 mm WeatherDisplay:10.37 W/m2 CLR
07:18 -3.7 °C -4.6 °C 1025.6 hPa East 1.9 km/h 1.9 km/h 94% 0 mm WeatherDisplay:10.37 W/m2 CLR
07:23 -3.6 °C -4.4 °C 1025.6 hPa East 1.9 km/h 1.9 km/h 94% 0 mm WeatherDisplay:10.37 W/m2 CLR
07:28 -3.7 °C -4.5 °C 1026 hPa East 1.6 km/h 1.6 km/h 94% 0 mm WeatherDisplay:10.37 W/m2 CLR
07:33 -3.6 °C -4.4 °C 1026 hPa Calm     94% 0 mm WeatherDisplay:10.37 W/m2 CLR
07:38 -3.6 °C -4.4 °C 1026 hPa Calm     94% 0 mm WeatherDisplay:10.37 W/m2 CLR
07:43 -3.6 °C -4.4 °C 1026 hPa East 1.9 km/h 1.9 km/h 94% 0 mm WeatherDisplay:10.37 W/m2 CLR
07:48 -3.6 °C -4.4 °C 1026 hPa East 1.9 km/h 1.9 km/h 94% 0 mm WeatherDisplay:10.37 W/m2 CLR
07:53 -3.5 °C -4.3 °C 1026 hPa Calm     94% 0 mm WeatherDisplay:10.37 W/m2 CLR
07:58 -3.4 °C -4.2 °C 1026.3 hPa East 1.9 km/h 1.9 km/h 94% 0 mm WeatherDisplay:10.37 W/m2 CLR
08:03 -3.3 °C -4.2 °C 1026.3 hPa East 3.7 km/h 3.7 km/h 94% 0 mm WeatherDisplay:10.37 W/m2 CLR
08:08 -3.2 °C -4 °C 1026.3 hPa East 3.7 km/h 3.7 km/h 94% 0 mm WeatherDisplay:10.37 W/m2 CLR
08:13 -2.9 °C -3.8 °C 1026.3 hPa East 3.7 km/h 3.7 km/h 94% 0 mm WeatherDisplay:10.37 W/m2 CLR
08:18 -2.7 °C -3.5 °C 1026.3 hPa East 3.7 km/h 3.7 km/h 94% 0 mm WeatherDisplay:10.37 W/m2 CLR
08:23 -2.4 °C -3.2 °C 1026.3 hPa East 3.7 km/h 3.7 km/h 94% 0 mm WeatherDisplay:10.37 W/m2 CLR
08:28 -2.2 °C -3 °C 1026.3 hPa East 3.7 km/h 3.7 km/h 94% 0 mm WeatherDisplay:10.37 W/m2 CLR
08:33 -1.9 °C -2.8 °C 1026 hPa East 1.9 km/h 1.9 km/h 94% 0 mm WeatherDisplay:10.37 W/m2 CLR
08:38 -1.7 °C -2.6 °C 1026.3 hPa Calm     94% 0 mm WeatherDisplay:10.37 W/m2 CLR
08:43 -1.5 °C -2.5 °C 1026 hPa East 3.7 km/h 3.7 km/h 93% 0 mm WeatherDisplay:10.37 W/m2 CLR
08:48 -1.2 °C -2.2 °C 1026 hPa East 1.9 km/h 1.9 km/h 93% 0 mm WeatherDisplay:10.37 W/m2 CLR
08:53 -0.7 °C -1.7 °C 1026 hPa East 5.6 km/h 5.6 km/h 93% 0 mm WeatherDisplay:10.37 W/m2 CLR
08:58 -0.5 °C -1.8 °C 1026.3 hPa East 3.7 km/h 3.7 km/h 91% 0 mm WeatherDisplay:10.37 W/m2 CLR
09:03 -0.3 °C -1.8 °C 1026.3 hPa East 1.9 km/h 1.9 km/h 90% 0 mm WeatherDisplay:10.37 W/m2 CLR
09:08 0 °C -1.4 °C 1026.6 hPa East 1.9 km/h 1.9 km/h 90% 0 mm WeatherDisplay:10.37 W/m2 CLR
09:13 0.4 °C -1.2 °C 1026.6 hPa East 1.9 km/h 1.9 km/h 89% 0 mm WeatherDisplay:10.37 W/m2 CLR
09:18 0.7 °C -1.2 °C 1027 hPa East 3.7 km/h 3.7 km/h 87% 0 mm WeatherDisplay:10.37 W/m2 CLR
09:23 1 °C -0.9 °C 1027 hPa East 3.7 km/h 3.7 km/h 87% 0 mm WeatherDisplay:10.37 W/m2 CLR
09:28 1.3 °C -0.4 °C 1027.3 hPa East 1.6 km/h   88% 0 mm WeatherDisplay:10.37 W/m2 CLR
09:33 1.7 °C -0.2 °C 1027.3 hPa East 1.9 km/h 1.9 km/h 87% 0 mm WeatherDisplay:10.37 W/m2 CLR
09:38 2.3 °C 0.4 °C 1027 hPa East 1.9 km/h 1.9 km/h 87% 0 mm WeatherDisplay:10.37 W/m2 CLR
09:43 2.9 °C 0.8 °C 1027.3 hPa East 3.7 km/h 3.7 km/h 86% 0 mm WeatherDisplay:10.37 W/m2 CLR
09:48 3.4 °C 0.8 °C 1027.7 hPa SW 5.6 km/h 5.6 km/h 83% 0 mm WeatherDisplay:10.37 W/m2 CLR
09:53 3.9 °C 0.6 °C 1027.3 hPa SW 6.4 km/h 6.4 km/h 79% 0 mm WeatherDisplay:10.37 W/m2 CLR
09:58 4.2 °C 0.7 °C 1027.3 hPa SW 9.3 km/h 9.3 km/h 78% 0 mm WeatherDisplay:10.37 W/m2 CLR
10:03 4.4 °C 1.1 °C 1027 hPa SW 7.4 km/h 7.4 km/h 79% 0 mm WeatherDisplay:10.37 W/m2 CLR
10:08 4.9 °C 0.8 °C 1027 hPa WSW 5.6 km/h 5.6 km/h 75% 0 mm WeatherDisplay:10.37 W/m2 CLR
10:13 5.1 °C 1 °C 1027 hPa SW 7.4 km/h 7.4 km/h 75% 0 mm WeatherDisplay:10.37 W/m2 CLR
10:18 5.5 °C 1.4 °C 1027 hPa WSW 5.6 km/h 5.6 km/h 75% 0 mm WeatherDisplay:10.37 W/m2 CLR
10:23 5.9 °C 1.6 °C 1026.6 hPa West 9.3 km/h 9.3 km/h 74% 0 mm WeatherDisplay:10.37 W/m2 CLR
10:28 6.3 °C 1.8 °C 1026.6 hPa West 9.3 km/h 9.3 km/h 73% 0 mm WeatherDisplay:10.37 W/m2 CLR
10:33 6.6 °C 1.7 °C 1026.6 hPa West 9.3 km/h 9.3 km/h 71% 0 mm WeatherDisplay:10.37 W/m2 CLR
10:38 6.9 °C 1.8 °C 1027 hPa West 11.1 km/h 11.1 km/h 70% 0 mm WeatherDisplay:10.37 W/m2 CLR
10:43 7.2 °C 1.9 °C 1027 hPa SSW 9.3 km/h 9.3 km/h 69% 0 mm WeatherDisplay:10.37 W/m2 CLR
10:48 7.4 °C 1.6 °C 1026.6 hPa West 5.6 km/h 5.6 km/h 67% 0 mm WeatherDisplay:10.37 W/m2 CLR
10:53 7.7 °C 1.9 °C 1026.6 hPa SW 9.7 km/h 9.7 km/h 67% 0 mm WeatherDisplay:10.37 W/m2 CLR
10:58 8 °C 2.2 °C 1026.6 hPa West 5.6 km/h 5.6 km/h 67% 0 mm WeatherDisplay:10.37 W/m2 CLR
11:03 8.2 °C 1.5 °C 1026.6 hPa WSW 14.5 km/h 14.5 km/h 63% 0 mm WeatherDisplay:10.37 W/m2 CLR
11:08 8.4 °C 1.5 °C 1026.6 hPa WSW 11.1 km/h 11.1 km/h 62% 0 mm WeatherDisplay:10.37 W/m2 CLR
11:13 8.7 °C 1.6 °C 1026.3 hPa WSW 11.1 km/h 11.1 km/h 61% 0 mm WeatherDisplay:10.37 W/m2 CLR
11:18 8.9 °C 1.3 °C 1026.3 hPa SSW 13 km/h 13 km/h 59% 0 mm WeatherDisplay:10.37 W/m2 CLR
11:23 9.3 °C 2.2 °C 1026.3 hPa West 9.7 km/h 9.7 km/h 61% 0 mm WeatherDisplay:10.37 W/m2 CLR
11:28 9.6 °C 1.9 °C 1026.3 hPa WNW 11.3 km/h 11.3 km/h 59% 0 mm WeatherDisplay:10.37 W/m2 CLR
11:33 9.7 °C 1.8 °C 1026.3 hPa West 11.1 km/h 11.1 km/h 58% 0 mm WeatherDisplay:10.37 W/m2 CLR
11:38 9.9 °C 1.8 °C 1026 hPa SW 13 km/h 13 km/h 57% 0 mm WeatherDisplay:10.37 W/m2 CLR
11:43 10.2 °C 1.8 °C 1026 hPa WNW 14.8 km/h 14.8 km/h 56% 0 mm WeatherDisplay:10.37 W/m2 CLR
11:48 10.6 °C 2.1 °C 1026 hPa West 9.3 km/h 9.3 km/h 56% 0 mm WeatherDisplay:10.37 W/m2 CLR
11:53 10.8 °C 1.8 °C 1026 hPa West 16.7 km/h 16.7 km/h 54% 0 mm WeatherDisplay:10.37 W/m2 CLR
11:58 10.8 °C 2.1 °C 1026 hPa SW 11.1 km/h 11.1 km/h 55% 0 mm WeatherDisplay:10.37 W/m2 CLR
12:03 11.1 °C 2.1 °C 1026 hPa West 16.7 km/h 16.7 km/h 54% 0 mm WeatherDisplay:10.37 W/m2 CLR
12:08 11.3 °C 2 °C 1025.6 hPa West 11.3 km/h 11.3 km/h 53% 0 mm WeatherDisplay:10.37 W/m2 CLR
12:13 11.3 °C 2.1 °C 1025.6 hPa WSW 14.8 km/h 14.8 km/h 53% 0 mm WeatherDisplay:10.37 W/m2 CLR
12:18 11.7 °C 2.1 °C 1025.3 hPa SSW 13 km/h 13 km/h 52% 0 mm WeatherDisplay:10.37 W/m2 CLR
12:23 11.8 °C 1.7 °C 1025.3 hPa West 14.8 km/h 14.8 km/h 50% 0 mm WeatherDisplay:10.37 W/m2 CLR
12:28 11.9 °C 1.8 °C 1025.3 hPa West 14.8 km/h 14.8 km/h 50% 0 mm WeatherDisplay:10.37 W/m2 CLR
12:33 12.1 °C 1.9 °C 1025.3 hPa SW 16.7 km/h 16.7 km/h 50% 0 mm WeatherDisplay:10.37 W/m2 CLR
12:38 12.2 °C 1.7 °C 1025.3 hPa WSW 16.7 km/h 16.7 km/h 49% 0 mm WeatherDisplay:10.37 W/m2 CLR
12:43 12.4 °C 2.3 °C 1025.3 hPa WSW 16.7 km/h 16.7 km/h 50% 0 mm WeatherDisplay:10.37 W/m2 CLR
12:48 12.6 °C 1.2 °C 1025.3 hPa WSW 13 km/h 13 km/h 46% 0 mm WeatherDisplay:10.37 W/m2 CLR
12:53 12.7 °C 1.3 °C 1025.3 hPa WSW 13 km/h 13 km/h 46% 0 mm WeatherDisplay:10.37 W/m2 CLR
12:58 12.8 °C 0.8 °C 1024.9 hPa WSW 13 km/h 13 km/h 44% 0 mm WeatherDisplay:10.37 W/m2 CLR
13:03 12.7 °C 1 °C 1024.9 hPa SW 20.4 km/h 20.4 km/h 45% 0 mm WeatherDisplay:10.37 W/m2 CLR
13:08 13.1 °C 1.7 °C 1024.6 hPa SW 14.8 km/h 14.8 km/h 46% 0 mm WeatherDisplay:10.37 W/m2 CLR
13:13 13.4 °C 1.9 °C 1024.6 hPa West 13 km/h 13 km/h 46% 0 mm WeatherDisplay:10.37 W/m2 CLR
13:18 13.6 °C 1.6 °C 1024.6 hPa SSW 9.3 km/h 9.3 km/h 44% 0 mm WeatherDisplay:10.37 W/m2 CLR
13:23 13.9 °C 1.5 °C 1024.6 hPa WSW 11.1 km/h 11.1 km/h 43% 0 mm WeatherDisplay:10.37 W/m2 CLR
13:28 14.3 °C 1.9 °C 1024.6 hPa WSW 16.7 km/h 16.7 km/h 43% 0 mm WeatherDisplay:10.37 W/m2 CLR
13:33 14.2 °C 1.8 °C 1024.3 hPa West 11.1 km/h 11.1 km/h 43% 0 mm WeatherDisplay:10.37 W/m2 CLR
13:38 14.3 °C 1.5 °C 1024.3 hPa West 18.5 km/h 18.5 km/h 42% 0 mm WeatherDisplay:10.37 W/m2 CLR
13:43 14.3 °C 1.2 °C 1024.3 hPa West 13 km/h 13 km/h 41% 0 mm WeatherDisplay:10.37 W/m2 CLR
13:48 14.3 °C 0.9 °C 1024.3 hPa West 11.1 km/h 11.1 km/h 40% 0 mm WeatherDisplay:10.37 W/m2 CLR
13:53 14.3 °C 0.5 °C 1024.3 hPa WSW 16.7 km/h 16.7 km/h 39% 0 mm WeatherDisplay:10.37 W/m2 CLR
13:58 14.5 °C 1 °C 1024.3 hPa SW 18.5 km/h 18.5 km/h 40% 0 mm WeatherDisplay:10.37 W/m2 CLR
14:03 14.8 °C 1.3 °C 1024.3 hPa WNW 16.7 km/h 16.7 km/h 40% 0 mm WeatherDisplay:10.37 W/m2 CLR
14:08 14.9 °C 0.7 °C 1023.9 hPa WSW 14.8 km/h 14.8 km/h 38% 0 mm WeatherDisplay:10.37 W/m2 CLR
14:13 14.9 °C 0.3 °C 1023.9 hPa WSW 13 km/h 13 km/h 37% 0 mm WeatherDisplay:10.37 W/m2 CLR
14:18 15.3 °C 1 °C 1023.9 hPa WSW 14.8 km/h 14.8 km/h 38% 0 mm WeatherDisplay:10.37 W/m2 CLR
14:23 15.2 °C 1.3 °C 1023.9 hPa SW 18.5 km/h 18.5 km/h 39% 0 mm WeatherDisplay:10.37 W/m2 CLR
14:28 15.3 °C 1.4 °C 1023.9 hPa WSW 9.7 km/h 9.7 km/h 39% 0 mm WeatherDisplay:10.37 W/m2 CLR
14:33 15.3 °C 1 °C 1023.9 hPa South 18.5 km/h 18.5 km/h 38% 0 mm WeatherDisplay:10.37 W/m2 CLR
14:38 15.5 °C 1.2 °C 1023.9 hPa SW 11.1 km/h 11.1 km/h 38% 0 mm WeatherDisplay:10.37 W/m2 CLR
14:43 15.7 °C 1.7 °C 1023.9 hPa WSW 16.7 km/h 16.7 km/h 39% 0 mm WeatherDisplay:10.37 W/m2 CLR
14:48 15.8 °C 1.5 °C 1023.6 hPa SW 13 km/h 13 km/h 38% 0 mm WeatherDisplay:10.37 W/m2 CLR
14:53 15.9 °C 1.6 °C 1023.6 hPa WSW 6.4 km/h 6.4 km/h 38% 0 mm WeatherDisplay:10.37 W/m2 CLR
14:58 15.9 °C 1.6 °C 1023.9 hPa West 14.8 km/h 14.8 km/h 38% 0 mm WeatherDisplay:10.37 W/m2 CLR
15:03 15.7 °C 0.6 °C 1023.9 hPa WSW 18.5 km/h 18.5 km/h 36% 0 mm WeatherDisplay:10.37 W/m2 CLR
15:08 15.5 °C 1.2 °C 1023.9 hPa WSW 14.8 km/h 14.8 km/h 38% 0 mm WeatherDisplay:10.37 W/m2 CLR
15:13 15.3 °C 1 °C 1024.3 hPa WSW 11.1 km/h 11.1 km/h 38% 0 mm WeatherDisplay:10.37 W/m2 CLR
15:18 15.2 °C 1.3 °C 1023.9 hPa WSW 8 km/h 8 km/h 39% 0 mm WeatherDisplay:10.37 W/m2 CLR
15:23 15.1 °C 1.2 °C 1023.6 hPa SW 5.6 km/h 5.6 km/h 39% 0 mm WeatherDisplay:10.37 W/m2 SCT
15:28 15 °C 1.5 °C 1022.9 hPa SW 8 km/h 8 km/h 40% 0 mm WeatherDisplay:10.37 W/m2 SCT
15:33 15.1 °C 1.5 °C 1022.9 hPa SSW 7.4 km/h 7.4 km/h 40% 0 mm WeatherDisplay:10.37 W/m2 SCT
15:38 15.1 °C 1.2 °C 1022.2 hPa South 5.6 km/h 5.6 km/h 39% 0 mm WeatherDisplay:10.37 W/m2 SCT
15:43 15.2 °C 1.7 °C 1021.9 hPa SSE 6.4 km/h 6.4 km/h 40% 0 mm WeatherDisplay:10.37 W/m2 -RA
15:48 15.3 °C 1.4 °C 1022.2 hPa SW 13 km/h 13 km/h 39% 0 mm WeatherDisplay:10.37 W/m2 -RA
15:53 15.3 °C 1.8 °C 1021.6 hPa SSW 13 km/h 13 km/h 40% 0 mm WeatherDisplay:10.37 W/m2 -RA
15:54 15.3 °C 1.8 °C 1021.6 hPa SSW 13 km/h 13 km/h 40% 0 mm WeatherDisplay:10.37 W/m2 -RA
15:59 15.3 °C 1.7 °C 1021.2 hPa SW 9.3 km/h 9.3 km/h 40% 0 mm WeatherDisplay:10.37 W/m2 -RA
16:04 15.4 °C 1.4 °C 1021.2 hPa SSW 5.6 km/h 6.6 km/h 39% 0 mm WeatherDisplay:10.37 W/m2 -RA
16:09 15.6 °C 1.6 °C 1021.2 hPa SW 18.5 km/h 18.5 km/h 39% 0 mm WeatherDisplay:10.37 W/m2 -RA
16:14 15.6 °C 1.6 °C 1020.9 hPa SW 18.5 km/h 18.5 km/h 39% 0 mm WeatherDisplay:10.37 W/m2 -RA
16:19 15.7 °C 1.7 °C 1020.5 hPa SSW 9.7 km/h 9.7 km/h 39% 0 mm WeatherDisplay:10.37 W/m2 -RA
16:24 15.7 °C 1.7 °C 1020.5 hPa South 22.5 km/h 22.5 km/h 39% 0 mm WeatherDisplay:10.37 W/m2 SCT
16:29 15.5 °C 1.2 °C 1020.5 hPa South 16.7 km/h 16.7 km/h 38% 0 mm WeatherDisplay:10.37 W/m2 SCT
16:34 15.2 °C 1.3 °C 1020.9 hPa SW 13 km/h 13 km/h 39% 0 mm WeatherDisplay:10.37 W/m2 SCT
16:39 15.3 °C 1.4 °C 1020.5 hPa West 19.3 km/h 19.3 km/h 39% 0 mm WeatherDisplay:10.37 W/m2 SCT
16:44 15.2 °C 1.6 °C 1020.5 hPa SW 16.7 km/h 16.7 km/h 40% 0 mm WeatherDisplay:10.37 W/m2 CLR
16:49 15.2 °C 0.9 °C 1020.2 hPa WSW 13 km/h 13 km/h 38% 0 mm WeatherDisplay:10.37 W/m2 CLR
16:54 15 °C 1.5 °C 1020.2 hPa West 14.8 km/h 14.8 km/h 40% 0 mm WeatherDisplay:10.37 W/m2 CLR
16:59 15 °C 1.1 °C 1019.9 hPa WSW 16.7 km/h 16.7 km/h 39% 0 mm WeatherDisplay:10.37 W/m2 CLR
17:04 14.8 °C 1 °C 1019.9 hPa SW 13 km/h 13 km/h 39% 0 mm WeatherDisplay:10.37 W/m2 CLR
17:09 14.8 °C 1.9 °C 1019.5 hPa WSW 11.1 km/h 11.1 km/h 42% 0 mm WeatherDisplay:10.37 W/m2 CLR
17:14 14.7 °C 1.8 °C 1019.2 hPa SW 11.1 km/h 11.1 km/h 42% 0 mm WeatherDisplay:10.37 W/m2 CLR
17:19 14.6 °C 2.1 °C 1019.5 hPa West 14.8 km/h 14.8 km/h 43% 0 mm WeatherDisplay:10.37 W/m2 CLR
17:24 14.5 °C 2.1 °C 1019.5 hPa West 11.1 km/h 11.1 km/h 43% 0 mm WeatherDisplay:10.37 W/m2 CLR
17:29 14.5 °C 2.1 °C 1019.9 hPa West 16.7 km/h 16.7 km/h 43% 0 mm WeatherDisplay:10.37 W/m2 CLR
17:34 14.5 °C 2.7 °C 1020.2 hPa SW 11.1 km/h 11.1 km/h 45% 0 mm WeatherDisplay:10.37 W/m2 CLR
17:39 14.4 °C 2.6 °C 1019.9 hPa West 13 km/h 13 km/h 45% 0 mm WeatherDisplay:10.37 W/m2 CLR
17:44 14.3 °C 2.8 °C 1019.9 hPa West 11.1 km/h 11.1 km/h 46% 0 mm WeatherDisplay:10.37 W/m2 CLR
17:49 14.5 °C 3 °C 1019.9 hPa West 13 km/h 13 km/h 46% 0 mm WeatherDisplay:10.37 W/m2 CLR
17:54 14.9 °C 3.3 °C 1019.9 hPa WSW 5.6 km/h 5.6 km/h 46% 0 mm WeatherDisplay:10.37 W/m2 CLR
17:59 14.8 °C 1.6 °C 1019.9 hPa SW 11.1 km/h 11.1 km/h 41% 0 mm WeatherDisplay:10.37 W/m2 CLR
18:04 14.6 °C 1.8 °C 1019.9 hPa West 9.3 km/h 9.3 km/h 42% 0 mm WeatherDisplay:10.37 W/m2 CLR
18:09 14.4 °C 1.6 °C 1019.9 hPa WSW 9.3 km/h 9.3 km/h 42% 0 mm WeatherDisplay:10.37 W/m2 CLR
18:14 14.2 °C 1.1 °C 1019.9 hPa WSW 13 km/h 13 km/h 41% 0 mm WeatherDisplay:10.37 W/m2 CLR
18:19 14.2 °C 0.7 °C 1019.9 hPa SSW 7.4 km/h 7.4 km/h 40% 0 mm WeatherDisplay:10.37 W/m2 CLR
18:24 14.1 °C 1 °C 1019.9 hPa WSW 5.6 km/h 5.6 km/h 41% 0 mm WeatherDisplay:10.37 W/m2 SCT
18:29 14.2 °C 1.1 °C 1019.9 hPa WSW 13 km/h 13 km/h 41% 0 mm WeatherDisplay:10.37 W/m2 SCT
18:34 14 °C 1.3 °C 1019.9 hPa WSW 9.3 km/h 9.3 km/h 42% 0 mm WeatherDisplay:10.37 W/m2 SCT
18:39 13.9 °C 1.2 °C 1019.9 hPa WSW 5.6 km/h 5.6 km/h 42% 0 mm WeatherDisplay:10.37 W/m2 SCT
18:44 13.9 °C 1.2 °C 1019.9 hPa WSW 7.4 km/h 7.4 km/h 42% 0 mm WeatherDisplay:10.37 W/m2 BKN
18:49 13.8 °C 1.4 °C 1019.9 hPa SW 9.3 km/h 9.3 km/h 43% 0 mm WeatherDisplay:10.37 W/m2 BKN
18:54 13.8 °C 1.4 °C 1019.9 hPa West 5.6 km/h 5.6 km/h 43% 0 mm WeatherDisplay:10.37 W/m2 BKN
18:59 13.8 °C 1.4 °C 1019.9 hPa WSW 5.6 km/h 5.6 km/h 43% 0 mm WeatherDisplay:10.37 W/m2 BKN
19:04 13.8 °C 1.4 °C 1019.9 hPa WSW 3.7 km/h 3.7 km/h 43% 0 mm WeatherDisplay:10.37 W/m2 OVC
19:09 13.8 °C 1.7 °C 1019.9 hPa West 3.7 km/h 3.7 km/h 44% 0 mm WeatherDisplay:10.37 W/m2 OVC
19:14 13.7 °C 1.9 °C 1020.2 hPa West 6.4 km/h 6.4 km/h 45% 0 mm WeatherDisplay:10.37 W/m2 OVC
19:19 13.7 °C 1.9 °C 1020.2 hPa West 3.7 km/h 3.7 km/h 45% 0 mm WeatherDisplay:10.37 W/m2 OVC
19:24 13.6 °C 1.8 °C 1020.2 hPa SW 11.1 km/h 11.1 km/h 45% 0 mm WeatherDisplay:10.37 W/m2 OVC
19:29 13.5 °C 1.8 °C 1020.2 hPa SW 5.6 km/h 5.6 km/h 45% 0 mm WeatherDisplay:10.37 W/m2 OVC
19:34 13.4 °C 1.9 °C 1020.2 hPa West 5.6 km/h 5.6 km/h 46% 0 mm WeatherDisplay:10.37 W/m2 OVC
19:39 13.3 °C 1.6 °C 1020.5 hPa West 5.6 km/h 5.6 km/h 45% 0 mm WeatherDisplay:10.37 W/m2 OVC
19:44 13.3 °C 1.6 °C 1020.2 hPa West 3.7 km/h 3.7 km/h 45% 0 mm WeatherDisplay:10.37 W/m2 OVC
19:49 13.3 °C 1.9 °C 1020.5 hPa West 1.9 km/h 1.9 km/h 46% 0 mm WeatherDisplay:10.37 W/m2 OVC
19:54 13.3 °C 1.9 °C 1020.5 hPa West 3.7 km/h 3.7 km/h 46% 0 mm WeatherDisplay:10.37 W/m2 OVC
19:59 13.3 °C 1.9 °C 1020.5 hPa West 1.9 km/h 1.9 km/h 46% 0 mm WeatherDisplay:10.37 W/m2 OVC
20:04 13.2 °C 1.8 °C 1020.5 hPa West 3.2 km/h 3.2 km/h 46% 0 mm WeatherDisplay:10.37 W/m2 OVC
20:09 13.2 °C 1.8 °C 1020.5 hPa West 1.9 km/h 1.9 km/h 46% 0 mm WeatherDisplay:10.37 W/m2 OVC
20:14 13.2 °C 1.8 °C 1020.5 hPa West 3.7 km/h 3.7 km/h 46% 0 mm WeatherDisplay:10.37 W/m2 OVC
20:19 13.2 °C 2.1 °C 1020.5 hPa West 3.7 km/h 3.7 km/h 47% 0 mm WeatherDisplay:10.37 W/m2 OVC
20:24 13.2 °C 1.8 °C 1020.5 hPa West 3.7 km/h 3.7 km/h 46% 0 mm WeatherDisplay:10.37 W/m2 OVC
20:29 13.2 °C 1.8 °C 1020.5 hPa SSW 3.7 km/h 3.7 km/h 46% 0 mm WeatherDisplay:10.37 W/m2 OVC
20:34 13.2 °C 2.4 °C 1020.5 hPa SSW 1.9 km/h 1.9 km/h 48% 0 mm WeatherDisplay:10.37 W/m2 OVC
20:39 13.1 °C 2 °C 1020.5 hPa South 4.8 km/h 4.8 km/h 47% 0 mm WeatherDisplay:10.37 W/m2 OVC
20:44 13.1 °C 2.3 °C 1020.2 hPa South 3.7 km/h 3.7 km/h 48% 0 mm WeatherDisplay:10.37 W/m2 OVC
20:54 13 °C 2.2 °C 1020.2 hPa South 3.7 km/h 3.7 km/h 48% 0 mm WeatherDisplay:10.37 W/m2 OVC
20:59 12.9 °C 2.4 °C 1020.2 hPa South 1.9 km/h 1.9 km/h 49% 0 mm WeatherDisplay:10.37 W/m2 OVC
21:04 12.9 °C 2.7 °C 1020.2 hPa SSW 5.6 km/h 5.6 km/h 50% 0 mm WeatherDisplay:10.37 W/m2 OVC
21:09 12.9 °C 3.2 °C 1020.2 hPa Calm     52% 0 mm WeatherDisplay:10.37 W/m2 OVC
21:14 12.7 °C 3.3 °C 1020.5 hPa SSW 3.7 km/h 3.7 km/h 53% 0 mm WeatherDisplay:10.37 W/m2 OVC
21:19 12.5 °C 4.2 °C 1020.5 hPa SSW 3.7 km/h 3.7 km/h 57% 0 mm WeatherDisplay:10.37 W/m2 OVC
21:24 12.3 °C 4.8 °C 1020.5 hPa Calm     60% 0 mm WeatherDisplay:10.37 W/m2 OVC
21:29 12.2 °C 3.9 °C 1020.5 hPa Calm     57% 0 mm WeatherDisplay:10.37 W/m2 OVC
21:34 12.1 °C 4.8 °C 1020.5 hPa Calm   0.2 km/h 61% 0 mm WeatherDisplay:10.37 W/m2 OVC
21:39 12.1 °C 4.3 °C 1020.2 hPa SSW 1.9 km/h 1.9 km/h 59% 0 mm WeatherDisplay:10.37 W/m2 OVC
21:44 11.9 °C 4.6 °C 1020.2 hPa Calm     61% 0 mm WeatherDisplay:10.37 W/m2 OVC
21:49 11.9 °C 5.1 °C 1020.2 hPa Calm     63% 0 mm WeatherDisplay:10.37 W/m2 OVC
21:54 11.8 °C 4.7 °C 1020.2 hPa Calm     62% 0 mm WeatherDisplay:10.37 W/m2 OVC
21:59 11.7 °C 4.6 °C 1019.9 hPa Calm     62% 0 mm WeatherDisplay:10.37 W/m2 OVC
22:04 11.6 °C 4.9 °C 1020.2 hPa SSW 3.7 km/h 3.7 km/h 64% 0 mm WeatherDisplay:10.37 W/m2 OVC
22:09 11.4 °C 4.6 °C 1020.2 hPa SSW 1.6 km/h 1.6 km/h 63% 0 mm WeatherDisplay:10.37 W/m2 OVC
22:14 11.4 °C 4.6 °C 1020.2 hPa SSW 1.9 km/h 1.9 km/h 63% 0 mm WeatherDisplay:10.37 W/m2 OVC
22:19 11.3 °C 4.7 °C 1020.5 hPa Calm     64% 0 mm WeatherDisplay:10.37 W/m2 OVC
22:24 11.2 °C 5.2 °C 1020.5 hPa SSW 3.7 km/h 3.7 km/h 67% 0 mm WeatherDisplay:10.37 W/m2 OVC
22:29 11.1 °C 5.6 °C 1020.5 hPa SSW 1.9 km/h 1.9 km/h 69% 0 mm WeatherDisplay:10.37 W/m2 OVC
22:34 10.9 °C 5.7 °C 1020.2 hPa Calm     70% 0 mm WeatherDisplay:10.37 W/m2 OVC
22:39 10.8 °C 5.8 °C 1019.9 hPa SSW 3.7 km/h 3.7 km/h 71% 0 mm WeatherDisplay:10.37 W/m2 OVC
22:44 10.7 °C 6.4 °C 1019.9 hPa Calm     75% 0 mm WeatherDisplay:10.37 W/m2 -RA
22:49 10.4 °C 6 °C 1019.9 hPa SSW 1.9 km/h 1.9 km/h 74% 0.25 mm WeatherDisplay:10.37 W/m2 -RA
22:54 10.2 °C 6.5 °C 1019.9 hPa SSW 1.9 km/h 1.9 km/h 78% 0.25 mm WeatherDisplay:10.37 W/m2 -RA
22:59 9.9 °C 6.1 °C 1019.9 hPa SSW 1.9 km/h 1.9 km/h 77% 0.25 mm WeatherDisplay:10.37 W/m2 -RA
23:04 9.8 °C 6.3 °C 1019.9 hPa Calm     79% 0.25 mm WeatherDisplay:10.37 W/m2 -RA
23:09 9.8 °C 6.3 °C 1019.9 hPa SSW 1.9 km/h 1.9 km/h 79% 0.25 mm WeatherDisplay:10.37 W/m2 -RA
23:14 9.8 °C 6.1 °C 1019.9 hPa Calm   0.3 km/h 78% 0.25 mm WeatherDisplay:10.37 W/m2 -RA
23:19 9.8 °C 6.5 °C 1019.9 hPa SSW 1.9 km/h 1.9 km/h 80% 0.25 mm WeatherDisplay:10.37 W/m2 -RA
23:24 9.9 °C 6.8 °C 1019.9 hPa SSW 1.9 km/h 1.9 km/h 81% 0.25 mm WeatherDisplay:10.37 W/m2 OVC
23:29 9.8 °C 6.7 °C 1020.2 hPa North 6.4 km/h 6.4 km/h 81% 0.25 mm WeatherDisplay:10.37 W/m2 OVC
23:34 9.7 °C 6.8 °C 1020.2 hPa North 5.6 km/h 5.6 km/h 82% 0.25 mm WeatherDisplay:10.37 W/m2 OVC
23:39 9.7 °C 6.9 °C 1020.2 hPa North 3.7 km/h 3.7 km/h 83% 0.25 mm WeatherDisplay:10.37 W/m2 OVC
23:44 9.7 °C 6.7 °C 1019.9 hPa East 3.7 km/h 3.7 km/h 82% 0.25 mm WeatherDisplay:10.37 W/m2 OVC
23:49 9.8 °C 6.3 °C 1019.5 hPa SSE 3.7 km/h 3.7 km/h 79% 0 mm WeatherDisplay:10.37 W/m2 OVC
23:54 9.9 °C 5.9 °C 1019.2 hPa ESE 3.7 km/h 3.7 km/h 76% 0 mm WeatherDisplay:10.37 W/m2 OVC
23:59 10.1 °C 6 °C 1019.2 hPa Calm     76% 0 mm WeatherDisplay:10.37 W/m2 OVC
Smyth Weather
Compliments of Weather Underground - 2.25 mb